CW5920 Weather Reports


time (UTC)temp
F
wind
direction
speed
knots
gust
knots
rain 1hr
in
rain 24hr
in
rain mn
in
humidity
%
barometer
mb
20260504040016 67 203 7.0 11.3 0.00 0.00 0.00 60 1016.0
20260504035016 67 203 7.0 10.4 0.00 0.00 0.00 59 1016.1
20260504034016 67 203 6.1 9.6 0.00 0.00 0.00 59 1016.0
20260504033016 67 203 7.0 10.4 0.00 0.00 0.00 58 1015.9
20260504032016 68 203 6.1 9.6 0.00 0.00 0.00 58 1015.9
20260504031016 68 203 6.1 10.4 0.00 0.00 0.00 58 1015.9
20260504030016 68 203 6.1 9.6 0.00 0.00 0.00 58 1015.6
20260504025016 68 203 5.2 7.8 0.00 0.00 0.00 58 1015.6
20260504024016 68 203 6.1 9.6 0.00 0.00 0.00 57 1015.6
20260504023016 68 203 6.1 7.8 0.00 0.00 0.00 56 1015.5
20260504022016 69 203 6.1 8.7 0.00 0.00 0.00 55 1015.5
20260504021016 69 203 6.1 8.7 0.00 0.00 0.00 54 1015.5
20260504020036 70 203 6.1 10.4 0.00 0.00 0.00 53 1015.4
20260504015016 70 203 6.1 8.7 0.00 0.00 0.00 51 1015.5
20260504014016 71 203 5.2 9.6 0.00 0.00 0.00 50 1015.5
20260504013036 71 203 6.1 10.4 0.00 0.00 0.00 49 1015.2
20260504012016 72 203 7.0 11.3 0.00 0.00 0.00 48 1015.0
20260504011016 72 203 7.8 11.3 0.00 0.00 0.00 46 1015.0
20260504010016 73 203 7.8 11.3 0.00 0.00 0.00 45 1015.0
20260504005036 74 203 6.1 9.6 0.00 0.00 0.00 45 1015.0
20260504004056 74 203 7.8 12.2 0.00 0.00 0.00 44 1015.0
20260504003016 75 203 7.0 11.3 0.00 0.00 0.00 43 1015.1
20260504002016 75 203 8.7 14.8 0.00 0.00 0.00 42 1015.0
20260504001016 76 203 7.8 12.2 0.00 0.00 0.00 42 1015.2
20260504000016 77 203 6.1 12.2 0.00 0.00 0.00 41 1015.3
20260503235036 77 203 7.8 13.0 0.00 0.00 0.00 40 1015.3
20260503234016 77 203 7.8 17.4 0.00 0.00 0.00 40 1015.4
20260503233016 78 203 7.8 13.0 0.00 0.00 0.00 38 1015.4
20260503232036 78 203 7.8 12.2 0.00 0.00 0.00 39 1015.5
20260503231016 78 203 6.1 12.2 0.00 0.00 0.00 40 1015.7
20260503230016 78 180 8.7 13.0 0.00 0.00 0.00 40 1015.7
20260503225036 79 203 7.0 13.9 0.00 0.00 0.00 38 1015.9
20260503224016 79 203 7.0 13.0 0.00 0.00 0.00 38 1015.8
20260503223016 79 203 8.7 15.6 0.00 0.00 0.00 36 1015.9
20260503222036 79 203 7.8 14.8 0.00 0.00 0.00 37 1016.0
20260503221016 79 203 7.0 12.2 0.00 0.00 0.00 39 1016.0
20260503220016 79 225 5.2 13.0 0.00 0.00 0.00 37 1016.2
20260503215036 80 225 5.2 12.2 0.00 0.00 0.00 36 1016.5
20260503214016 80 203 9.6 14.8 0.00 0.00 0.00 37 1016.5
20260503213016 80 203 7.8 12.2 0.00 0.00 0.00 37 1016.8
20260503212016 80 203 7.0 13.0 0.00 0.00 0.00 37 1016.8
20260503211016 81 203 7.8 13.9 0.00 0.00 0.00 36 1017.1
20260503210016 81 203 7.8 13.0 0.00 0.00 0.00 37 1017.3
20260503205016 82 203 2.6 7.8 0.00 0.00 0.00 37 1017.5
20260503204016 81 203 1.7 8.7 0.00 0.00 0.00 36 1017.6
20260503203016 81 203 8.7 13.9 0.00 0.00 0.00 36 1017.9
20260503202036 81 225 4.3 11.3 0.00 0.00 0.00 38 1018.2
20260503201016 81 270 1.7 7.8 0.00 0.00 0.00 37 1018.4
20260503200016 81 225 0.9 4.3 0.00 0.00 0.00 35 1018.3
20260503195035 82 203 6.1 15.6 0.00 0.00 0.00 37 1018.6
20260503194016 81 270 0.9 3.5 0.00 0.00 0.00 35 1018.6
20260503193016 81 225 2.6 10.4 0.00 0.00 0.00 36 1018.9
20260503192015 81 203 7.8 14.8 0.00 0.00 0.00 36 1019.0
20260503191016 81 270 1.7 6.1 0.00 0.00 0.00 35 1019.3
20260503190016 81 203 5.2 12.2 0.00 0.00 0.00 37 1019.5
20260503185016 81 203 3.5 12.2 0.00 0.00 0.00 37 1019.5
20260503184016 81 203 2.6 7.0 0.00 0.00 0.00 41 1019.7
20260503183016 81 225 2.6 8.7 0.00 0.00 0.00 39 1019.9
20260503182036 81 225 2.6 8.7 0.00 0.00 0.00 41 1020.0
20260503181016 80 225 1.7 5.2 0.00 0.00 0.00 40 1020.2
20260503180016 80 270 1.7 7.0 0.00 0.00 0.00 41 1020.4
20260503174016 79 248 2.6 10.4 0.00 0.00 0.00 44 1020.7
20260503173015 79 270 1.7 5.2 0.00 0.00 0.00 44 1021.0
20260503172016 79 225 0.9 2.6 0.00 0.00 0.00 49 1021.1
20260503171035 78 225 0.9 2.6 0.00 0.00 0.00 49 1021.3
20260503131015 60 0.0 0.0 0.00 0.00 0.00 76 1021.3
20260503081036 58 0.0 0.9 0.00 0.00 0.00 74 1019.9
20260503072016 58 0.0 0.0 0.00 0.00 0.00 74 1020.2
20260503071016 59 0.0 0.0 0.00 0.00 0.00 73 1020.4
20260503055016 61 225 0.9 4.3 0.00 0.00 0.00 68 1020.4
20260503054016 62 225 1.7 7.0 0.00 0.00 0.00 67 1020.4
20260503053016 62 203 1.7 5.2 0.00 0.00 0.00 67 1020.3
20260503052016 63 225 2.6 7.0 0.00 0.00 0.00 67 1020.2
20260503051016 63 203 1.7 5.2 0.00 0.00 0.00 66 1020.2
20260503050016 64 225 2.6 6.1 0.00 0.00 0.00 65 1020.2
20260503045016 64 225 3.5 7.8 0.00 0.00 0.00 64 1020.0
20260503044016 64 225 3.5 7.0 0.00 0.00 0.00 63 1020.1
20260503043016 64 225 2.6 6.1 0.00 0.00 0.00 63 1020.0
20260503042036 64 225 1.7 6.1 0.00 0.00 0.00 62 1020.1
20260503041136 64 0.0 0.9 0.00 0.00 0.00 61 1020.2